{"data":{"norad_id":48568,"epoch":"2026-09-19T19:55:51.711168Z","epoch_age_seconds":95091,"freshness":"FRESH","line1":"1 48568U 21041R   26262.83045962 -.00000716  00000+0 -11293-4 0  9999","line2":"2 48568  53.1594 303.6470 0001429  75.9069 284.2091 15.31697720295019","mean_motion":15.3169772,"eccentricity":0.0001429,"inclination_deg":53.1594,"raan_deg":303.647,"arg_perigee_deg":75.9069,"mean_anomaly_deg":284.2091,"bstar":-1.1293e-5,"rev_number":29501,"period_min":94.01332790389,"perigee_km":469.76808630159,"apogee_km":471.72549728928,"semimajor_km":6848.8837917954,"source":"CELESTRAK","updated_at":"2026-09-20T09:00:39.134323Z"}}